| time (UTC) | temp F | wind direction | speed MPH | gust MPH | rain 1hr in | rain 24hr in | rain mn in | humidity % | barometer mb |
| 20260505041531 | 44 | 174 | 14.0 | 23.0 | 0.00 | 0.18 | 0.00 | 82 | 1005.6 |
| 20260505040024 | 44 | 218 | 14.0 | 21.0 | 0.00 | 0.18 | 0.00 | 82 | 1005.6 |
| 20260505034523 | 45 | 247 | 11.0 | 27.0 | 0.00 | 0.18 | 0.00 | 80 | 1005.5 |
| 20260505033021 | 45 | 220 | 13.0 | 25.0 | 0.00 | 0.18 | 0.00 | 80 | 1005.2 |
| 20260505031518 | 44 | 231 | 16.0 | 24.0 | 0.00 | 0.18 | 0.00 | 81 | 1005.0 |
| 20260505030013 | 44 | 216 | 12.0 | 23.0 | 0.00 | 0.18 | 0.18 | 81 | 1004.9 |
| 20260505024532 | 44 | 249 | 12.0 | 24.0 | 0.00 | 0.18 | 0.18 | 81 | 1004.6 |
| 20260505023010 | 44 | 267 | 14.0 | 28.0 | 0.00 | 0.18 | 0.18 | 82 | 1004.3 |
| 20260505021508 | 44 | 221 | 17.0 | 24.0 | 0.00 | 0.18 | 0.18 | 81 | 1004.2 |
| 20260505020007 | 45 | 236 | 18.0 | 27.0 | 0.00 | 0.18 | 0.18 | 79 | 1004.0 |
| 20260505014507 | 46 | 257 | 20.0 | 36.0 | 0.00 | 0.18 | 0.18 | 75 | 1003.8 |
| 20260505013015 | 46 | 221 | 21.0 | 32.0 | 0.00 | 0.18 | 0.18 | 74 | 1003.6 |
| 20260505011502 | 47 | 240 | 17.0 | 30.0 | 0.00 | 0.18 | 0.18 | 72 | 1003.4 |
| 20260505010003 | 46 | 219 | 16.0 | 27.0 | 0.00 | 0.21 | 0.18 | 71 | 1003.3 |
| 20260505004502 | 47 | 221 | 16.0 | 26.0 | 0.00 | 0.21 | 0.18 | 69 | 1003.3 |
| 20260505003100 | 47 | 241 | 14.0 | 32.0 | 0.00 | 0.21 | 0.18 | 68 | 1003.4 |
| 20260505001559 | 46 | 262 | 16.0 | 27.0 | 0.00 | 0.21 | 0.18 | 68 | 1003.0 |
| 20260505000107 | 45 | 233 | 18.0 | 27.0 | 0.00 | 0.21 | 0.18 | 68 | 1002.8 |
| 20260504234619 | 45 | 223 | 12.0 | 23.0 | 0.00 | 0.24 | 0.18 | 69 | 1002.3 |
| 20260504233053 | 45 | 216 | 11.0 | 19.0 | 0.00 | 0.24 | 0.18 | 69 | 1002.3 |
| 20260504231601 | 44 | 226 | 9.0 | 20.0 | 0.00 | 0.24 | 0.18 | 67 | 1002.1 |
| 20260504230050 | 45 | 212 | 12.0 | 23.0 | 0.00 | 0.24 | 0.18 | 66 | 1002.1 |
| 20260504224550 | 46 | 224 | 11.0 | 18.0 | 0.00 | 0.34 | 0.18 | 65 | 1002.0 |
| 20260504223049 | 46 | 244 | 12.0 | 21.0 | 0.00 | 0.34 | 0.18 | 64 | 1002.0 |
| 20260504221557 | 47 | 176 | 10.0 | 17.0 | 0.00 | 0.34 | 0.18 | 64 | 1002.0 |
| 20260504220046 | 47 | 214 | 12.0 | 23.0 | 0.00 | 0.34 | 0.18 | 65 | 1001.7 |
| 20260504214545 | 48 | 221 | 13.0 | 21.0 | 0.00 | 0.43 | 0.18 | 63 | 1001.5 |
| 20260504213043 | 48 | 231 | 13.0 | 24.0 | 0.00 | 0.43 | 0.18 | 62 | 1001.5 |
| 20260504211548 | 48 | 231 | 13.0 | 26.0 | 0.00 | 0.43 | 0.18 | 65 | 1001.4 |
| 20260504210100 | 48 | 238 | 15.0 | 32.0 | 0.00 | 0.43 | 0.18 | 66 | 1001.0 |
| 20260504204546 | 48 | 234 | 14.0 | 28.0 | 0.00 | 0.49 | 0.18 | 66 | 1000.9 |
| 20260504203037 | 48 | 224 | 16.0 | 26.0 | 0.00 | 0.49 | 0.18 | 68 | 1000.5 |
| 20260504201532 | 47 | 193 | 15.0 | 28.0 | 0.00 | 0.49 | 0.18 | 71 | 1000.6 |
| 20260504200032 | 47 | 277 | 15.0 | 26.0 | 0.00 | 0.49 | 0.18 | 71 | 1000.3 |
| 20260504194542 | 46 | 241 | 18.0 | 23.0 | 0.00 | 0.54 | 0.18 | 74 | 1000.1 |
| 20260504193028 | 45 | 272 | 12.0 | 20.0 | 0.00 | 0.54 | 0.18 | 79 | 999.9 |
| 20260504191529 | 45 | 231 | 12.0 | 25.0 | 0.00 | 0.54 | 0.18 | 80 | 999.8 |
| 20260504190023 | 44 | 250 | 15.0 | 22.0 | 0.00 | 0.54 | 0.18 | 80 | 999.8 |
| 20260504184525 | 45 | 221 | 10.0 | 23.0 | 0.00 | 0.54 | 0.18 | 79 | 999.6 |
| 20260504183019 | 44 | 243 | 11.0 | 18.0 | 0.00 | 0.54 | 0.18 | 80 | 999.4 |
| 20260504181514 | 43 | 246 | 11.0 | 21.0 | 0.00 | 0.54 | 0.18 | 81 | 999.5 |
| 20260504180014 | 42 | 260 | 13.0 | 23.0 | 0.00 | 0.54 | 0.18 | 85 | 999.4 |
| 20260504174509 | 41 | 240 | 11.0 | 18.0 | 0.00 | 0.54 | 0.18 | 87 | 999.0 |
| 20260504173014 | 41 | 257 | 10.0 | 18.0 | 0.00 | 0.54 | 0.18 | 87 | 998.7 |
| 20260504171505 | 41 | 261 | 13.0 | 20.0 | 0.00 | 0.54 | 0.18 | 88 | 998.4 |
| 20260504081517 | 37 | 257 | 5.0 | 9.0 | 0.02 | 0.45 | 0.09 | 96 | 977.2 |
| 20260504050123 | 40 | 4 | 1.0 | 4.0 | 0.00 | 0.36 | 0.00 | 88 | 975.5 |
| 20260504044551 | 40 | 278 | 0.0 | 6.0 | 0.00 | 0.36 | 0.00 | 87 | 975.8 |
| 20260504043052 | 41 | 212 | 0.0 | 6.0 | 0.00 | 0.36 | 0.00 | 87 | 976.1 |